OneWeb SL0499

operational
NORAD ID: 54117 Int'l Des: 2022-138 Owner: ONEWEBN Country: UK Constellation: oneweb
LEOCIRCULARPOLARONEWEB_TYPE

关于 OneWeb SL0499

正在加载描述...

实时位置

正在加载3D地球...

即将过境

高度历史

Altitude vs Time

uPlot chart will show altitude changes over time

两行轨道根数

1 54117U 22138E 25260.79915301 .00000008 00000-0 -13375-4 0 9996
2 54117 87.9281 359.1414 0001722 92.8967 267.2363 13.19725017140892
Epoch: Sep 17, 2025 • Age: 16 hours

当前状态

高度 1213.4 km
速度 7.25 km/s
星下点 -70.78°S, 22.27°E
发射日期 Oct 22, 2022
运行时间 2.9 years
类型 internet

技术详情

分类 Payload
质量 148.00 kg
干质量 140.00 kg
总质量 148.00 kg
长度 1.30 m
直径 1.00 m
跨度 5.00 m
形状 Trapezoid+2 pan
制造商 ONEWUS
平台类型 ARROW
阶段状态 In Orbit
所有者/国家 ONEWEBN/UK

大型星座

Loading constellations...